Location: Boiro
(42.6475°N, 8.8834°W)
Time: 16:33:06
(UTC+01:00)

Vanguard 2 - Pass Details

Date: 01 December 2021
Orbit: 553 x 2936 km, 32.9° (Epoch: 21 January)

Event Time Altitude Azimuth Distance (km) Brightness Sun altitude
Rises 16:12:26 0° 238° (WSW) 3,147 12.1 14.8°
Reaches altitude 10° 16:14:39 10° 229° (SW) 2,414 12.6 14.5°
Maximum altitude 16:19:48 35° 164° (SSE) 1,668 9.8 13.9°
Drops below altitude 10° 16:27:44 10° 103° (ESE) 3,750 10.8 12.9°
Sets 16:32:03 0° 96° (E) 5,170 11.4 12.4°
